owner,sensor,date,latitude,longitude,relative_humidity,qcFlag 
SCCF RECON,ioos:station:SCCF:16:1,2017-12-01T05:45:00Z,26.4345,-81.9647,82.5,1111122 
SCCF RECON,ioos:station:SCCF:16:1,2017-12-01T06:45:00Z,26.4345,-81.9647,87.2,1111122 
SCCF RECON,ioos:station:SCCF:16:1,2017-12-01T07:45:00Z,26.4345,-81.9647,88.5,1111122 
SCCF RECON,ioos:station:SCCF:16:1,2017-12-01T08:45:00Z,26.4345,-81.9647,88.7,1111122 
SCCF RECON,ioos:station:SCCF:16:1,2017-12-01T09:45:00Z,26.4345,-81.9647,89.8,1111122 
SCCF RECON,ioos:station:SCCF:16:1,2017-12-01T10:45:00Z,26.4345,-81.9647,90.7,1111122 
SCCF RECON,ioos:station:SCCF:16:1,2017-12-01T11:45:00Z,26.4345,-81.9647,90.9,1111122 
SCCF RECON,ioos:station:SCCF:16:1,2017-12-01T12:45:00Z,26.4345,-81.9647,89.2,1111122 
SCCF RECON,ioos:station:SCCF:16:1,2017-12-01T13:45:00Z,26.4345,-81.9647,84.4,1111122 
SCCF RECON,ioos:station:SCCF:16:1,2017-12-01T14:45:00Z,26.4345,-81.9647,75.8,1111122 
SCCF RECON,ioos:station:SCCF:16:1,2017-12-01T15:45:00Z,26.4345,-81.9647,71.3,1111122 
SCCF RECON,ioos:station:SCCF:16:1,2017-12-01T16:45:00Z,26.4345,-81.9647,68.8,1111122 
SCCF RECON,ioos:station:SCCF:16:1,2017-12-01T17:45:00Z,26.4345,-81.9647,60.4,1111122 
SCCF RECON,ioos:station:SCCF:16:1,2017-12-01T18:45:00Z,26.4345,-81.9647,54.8,1111122 
SCCF RECON,ioos:station:SCCF:16:1,2017-12-01T19:45:00Z,26.4345,-81.9647,53.4,1111122 
SCCF RECON,ioos:station:SCCF:16:1,2017-12-01T20:45:00Z,26.4345,-81.9647,49.5,1111122 
SCCF RECON,ioos:station:SCCF:16:1,2017-12-01T21:45:00Z,26.4345,-81.9647,50.6,1111122 
SCCF RECON,ioos:station:SCCF:16:1,2017-12-01T22:45:00Z,26.4345,-81.9647,52.8,1111122 
SCCF RECON,ioos:station:SCCF:16:1,2017-12-02T05:45:00Z,26.4345,-81.9647,81.9,1111122 
SCCF RECON,ioos:station:SCCF:16:1,2017-12-02T06:45:00Z,26.4345,-81.9647,85.6,1111122 
SCCF RECON,ioos:station:SCCF:16:1,2017-12-02T07:45:00Z,26.4345,-81.9647,85.7,1111122 
SCCF RECON,ioos:station:SCCF:16:1,2017-12-02T08:45:00Z,26.4345,-81.9647,86.8,1111122 
SCCF RECON,ioos:station:SCCF:16:1,2017-12-02T09:45:00Z,26.4345,-81.9647,87.3,1111122 
SCCF RECON,ioos:station:SCCF:16:1,2017-12-02T10:45:00Z,26.4345,-81.9647,84.7,1111122 
SCCF RECON,ioos:station:SCCF:16:1,2017-12-02T11:45:00Z,26.4345,-81.9647,87.5,1111122 
SCCF RECON,ioos:station:SCCF:16:1,2017-12-02T12:45:00Z,26.4345,-81.9647,86.5,1111122 
SCCF RECON,ioos:station:SCCF:16:1,2017-12-02T13:45:00Z,26.4345,-81.9647,83.9,1111122 
SCCF RECON,ioos:station:SCCF:16:1,2017-12-02T14:45:00Z,26.4345,-81.9647,76.7,1111122 
SCCF RECON,ioos:station:SCCF:16:1,2017-12-02T15:45:00Z,26.4345,-81.9647,69.4,1111122 
SCCF RECON,ioos:station:SCCF:16:1,2017-12-02T16:45:00Z,26.4345,-81.9647,62.6,1111122 
SCCF RECON,ioos:station:SCCF:16:1,2017-12-02T17:45:00Z,26.4345,-81.9647,60.5,1111122 
SCCF RECON,ioos:station:SCCF:16:1,2017-12-02T18:45:00Z,26.4345,-81.9647,55.0,1111122 
SCCF RECON,ioos:station:SCCF:16:1,2017-12-02T19:45:00Z,26.4345,-81.9647,57.3,1111122 
SCCF RECON,ioos:station:SCCF:16:1,2017-12-02T20:45:00Z,26.4345,-81.9647,51.5,1111122 
SCCF RECON,ioos:station:SCCF:16:1,2017-12-02T21:45:00Z,26.4345,-81.9647,57.3,1111122 
SCCF RECON,ioos:station:SCCF:16:1,2017-12-02T22:45:00Z,26.4345,-81.9647,58.2,1111122 
SCCF RECON,ioos:station:SCCF:16:1,2017-12-03T05:45:00Z,26.4345,-81.9647,81.2,1111122 
SCCF RECON,ioos:station:SCCF:16:1,2017-12-03T06:45:00Z,26.4345,-81.9647,80.3,1111122 
SCCF RECON,ioos:station:SCCF:16:1,2017-12-03T07:45:00Z,26.4345,-81.9647,81.1,1111122 
SCCF RECON,ioos:station:SCCF:16:1,2017-12-03T08:45:00Z,26.4345,-81.9647,80.5,1111122 
SCCF RECON,ioos:station:SCCF:16:1,2017-12-03T09:45:00Z,26.4345,-81.9647,83.0,1111122 
SCCF RECON,ioos:station:SCCF:16:1,2017-12-03T10:45:00Z,26.4345,-81.9647,83.1,1111122 
SCCF RECON,ioos:station:SCCF:16:1,2017-12-03T11:45:00Z,26.4345,-81.9647,91.2,1111122 
SCCF RECON,ioos:station:SCCF:16:1,2017-12-03T12:45:00Z,26.4345,-81.9647,87.2,1111122 
SCCF RECON,ioos:station:SCCF:16:1,2017-12-03T13:45:00Z,26.4345,-81.9647,83.7,1111122 
SCCF RECON,ioos:station:SCCF:16:1,2017-12-03T14:45:00Z,26.4345,-81.9647,75.8,1111122 
SCCF RECON,ioos:station:SCCF:16:1,2017-12-03T15:45:00Z,26.4345,-81.9647,71.6,1111122 
SCCF RECON,ioos:station:SCCF:16:1,2017-12-03T16:45:00Z,26.4345,-81.9647,63.8,1111122 
SCCF RECON,ioos:station:SCCF:16:1,2017-12-03T17:45:00Z,26.4345,-81.9647,68.3,1111122 
SCCF RECON,ioos:station:SCCF:16:1,2017-12-03T18:45:00Z,26.4345,-81.9647,63.7,1111122 
SCCF RECON,ioos:station:SCCF:16:1,2017-12-03T19:45:00Z,26.4345,-81.9647,57.4,1111122 
SCCF RECON,ioos:station:SCCF:16:1,2017-12-03T20:45:00Z,26.4345,-81.9647,71.6,1111122 
SCCF RECON,ioos:station:SCCF:16:1,2017-12-03T21:45:00Z,26.4345,-81.9647,70.2,1111122 
SCCF RECON,ioos:station:SCCF:16:1,2017-12-03T22:45:00Z,26.4345,-81.9647,76.1,1111122 
SCCF RECON,ioos:station:SCCF:16:1,2017-12-04T05:45:00Z,26.4345,-81.9647,77.4,1111122 
SCCF RECON,ioos:station:SCCF:16:1,2017-12-04T06:45:00Z,26.4345,-81.9647,80.0,1111122 
SCCF RECON,ioos:station:SCCF:16:1,2017-12-04T07:45:00Z,26.4345,-81.9647,82.7,1111122 
SCCF RECON,ioos:station:SCCF:16:1,2017-12-04T08:45:00Z,26.4345,-81.9647,88.9,1111122 
SCCF RECON,ioos:station:SCCF:16:1,2017-12-04T09:45:00Z,26.4345,-81.9647,92.7,1111122 
SCCF RECON,ioos:station:SCCF:16:1,2017-12-04T10:45:00Z,26.4345,-81.9647,93.0,1111122 
SCCF RECON,ioos:station:SCCF:16:1,2017-12-04T11:45:00Z,26.4345,-81.9647,94.5,1111122 
SCCF RECON,ioos:station:SCCF:16:1,2017-12-04T12:45:00Z,26.4345,-81.9647,94.5,1111122 
SCCF RECON,ioos:station:SCCF:16:1,2017-12-04T13:45:00Z,26.4345,-81.9647,91.8,1111122 
SCCF RECON,ioos:station:SCCF:16:1,2017-12-04T14:45:00Z,26.4345,-81.9647,81.2,1111122 
SCCF RECON,ioos:station:SCCF:16:1,2017-12-04T15:45:00Z,26.4345,-81.9647,73.6,1111122 
SCCF RECON,ioos:station:SCCF:16:1,2017-12-04T16:45:00Z,26.4345,-81.9647,67.1,1111122 
SCCF RECON,ioos:station:SCCF:16:1,2017-12-04T17:45:00Z,26.4345,-81.9647,66.0,1111122 
SCCF RECON,ioos:station:SCCF:16:1,2017-12-04T18:45:00Z,26.4345,-81.9647,59.2,1111122 
SCCF RECON,ioos:station:SCCF:16:1,2017-12-04T19:45:00Z,26.4345,-81.9647,61.0,1111122 
SCCF RECON,ioos:station:SCCF:16:1,2017-12-04T20:45:00Z,26.4345,-81.9647,59.8,1111122 
SCCF RECON,ioos:station:SCCF:16:1,2017-12-04T21:45:00Z,26.4345,-81.9647,62.8,1111122 
SCCF RECON,ioos:station:SCCF:16:1,2017-12-04T22:45:00Z,26.4345,-81.9647,63.3,1111122 
SCCF RECON,ioos:station:SCCF:16:1,2017-12-05T05:45:00Z,26.4345,-81.9647,82.0,1111122 
SCCF RECON,ioos:station:SCCF:16:1,2017-12-05T06:45:00Z,26.4345,-81.9647,86.1,1111122 
SCCF RECON,ioos:station:SCCF:16:1,2017-12-05T07:45:00Z,26.4345,-81.9647,90.1,1111122 
SCCF RECON,ioos:station:SCCF:16:1,2017-12-05T08:45:00Z,26.4345,-81.9647,92.0,1111122 
SCCF RECON,ioos:station:SCCF:16:1,2017-12-05T09:45:00Z,26.4345,-81.9647,94.5,1111122 
SCCF RECON,ioos:station:SCCF:16:1,2017-12-05T10:45:00Z,26.4345,-81.9647,94.4,1111122 
SCCF RECON,ioos:station:SCCF:16:1,2017-12-05T11:45:00Z,26.4345,-81.9647,93.5,1111122 
SCCF RECON,ioos:station:SCCF:16:1,2017-12-05T12:45:00Z,26.4345,-81.9647,93.6,1111122 
SCCF RECON,ioos:station:SCCF:16:1,2017-12-05T13:45:00Z,26.4345,-81.9647,89.4,1111122 
SCCF RECON,ioos:station:SCCF:16:1,2017-12-05T14:45:00Z,26.4345,-81.9647,80.3,1111122 
SCCF RECON,ioos:station:SCCF:16:1,2017-12-05T15:45:00Z,26.4345,-81.9647,74.0,1111122 
SCCF RECON,ioos:station:SCCF:16:1,2017-12-05T16:45:00Z,26.4345,-81.9647,67.4,1111122 
SCCF RECON,ioos:station:SCCF:16:1,2017-12-05T17:45:00Z,26.4345,-81.9647,68.7,1111122 
SCCF RECON,ioos:station:SCCF:16:1,2017-12-05T18:45:00Z,26.4345,-81.9647,68.1,1111122 
SCCF RECON,ioos:station:SCCF:16:1,2017-12-05T19:45:00Z,26.4345,-81.9647,70.6,1111122 
SCCF RECON,ioos:station:SCCF:16:1,2017-12-05T20:45:00Z,26.4345,-81.9647,76.1,1111122 
SCCF RECON,ioos:station:SCCF:16:1,2017-12-05T21:45:00Z,26.4345,-81.9647,74.9,1111122 
SCCF RECON,ioos:station:SCCF:16:1,2017-12-05T22:45:00Z,26.4345,-81.9647,79.4,1111122 
SCCF RECON,ioos:station:SCCF:16:1,2017-12-06T05:45:00Z,26.4345,-81.9647,79.8,1111122 
SCCF RECON,ioos:station:SCCF:16:1,2017-12-06T06:45:00Z,26.4345,-81.9647,89.5,1111122 
SCCF RECON,ioos:station:SCCF:16:1,2017-12-06T07:45:00Z,26.4345,-81.9647,89.9,1111122 
SCCF RECON,ioos:station:SCCF:16:1,2017-12-06T08:45:00Z,26.4345,-81.9647,90.6,1111122 
SCCF RECON,ioos:station:SCCF:16:1,2017-12-06T09:45:00Z,26.4345,-81.9647,93.4,1111122 
SCCF RECON,ioos:station:SCCF:16:1,2017-12-06T10:45:00Z,26.4345,-81.9647,94.1,1111122 
SCCF RECON,ioos:station:SCCF:16:1,2017-12-06T11:45:00Z,26.4345,-81.9647,93.7,1111122 
SCCF RECON,ioos:station:SCCF:16:1,2017-12-06T12:45:00Z,26.4345,-81.9647,93.6,1111122 
SCCF RECON,ioos:station:SCCF:16:1,2017-12-06T13:45:00Z,26.4345,-81.9647,91.3,1111122 
SCCF RECON,ioos:station:SCCF:16:1,2017-12-06T14:45:00Z,26.4345,-81.9647,85.9,1111122 
SCCF RECON,ioos:station:SCCF:16:1,2017-12-06T15:45:00Z,26.4345,-81.9647,84.5,1111122 
SCCF RECON,ioos:station:SCCF:16:1,2017-12-06T16:45:00Z,26.4345,-81.9647,84.1,1111122 
SCCF RECON,ioos:station:SCCF:16:1,2017-12-06T17:45:00Z,26.4345,-81.9647,82.6,1111122 
SCCF RECON,ioos:station:SCCF:16:1,2017-12-06T18:45:00Z,26.4345,-81.9647,83.0,1111122 
SCCF RECON,ioos:station:SCCF:16:1,2017-12-06T19:45:00Z,26.4345,-81.9647,82.8,1111122 
SCCF RECON,ioos:station:SCCF:16:1,2017-12-06T20:45:00Z,26.4345,-81.9647,80.6,1111122 
SCCF RECON,ioos:station:SCCF:16:1,2017-12-06T21:45:00Z,26.4345,-81.9647,84.7,1111122 
SCCF RECON,ioos:station:SCCF:16:1,2017-12-06T22:45:00Z,26.4345,-81.9647,88.8,1111122 
SCCF RECON,ioos:station:SCCF:16:1,2017-12-07T05:45:00Z,26.4345,-81.9647,98.3,1111122 
SCCF RECON,ioos:station:SCCF:16:1,2017-12-07T06:45:00Z,26.4345,-81.9647,97.7,1111122 
SCCF RECON,ioos:station:SCCF:16:1,2017-12-07T07:45:00Z,26.4345,-81.9647,97.8,1111122 
SCCF RECON,ioos:station:SCCF:16:1,2017-12-07T08:45:00Z,26.4345,-81.9647,99.0,1111122 
SCCF RECON,ioos:station:SCCF:16:1,2017-12-07T09:45:00Z,26.4345,-81.9647,99.6,1111122 
SCCF RECON,ioos:station:SCCF:16:1,2017-12-07T10:45:00Z,26.4345,-81.9647,98.6,1111122 
SCCF RECON,ioos:station:SCCF:16:1,2017-12-07T11:45:00Z,26.4345,-81.9647,98.0,1111122 
SCCF RECON,ioos:station:SCCF:16:1,2017-12-07T12:45:00Z,26.4345,-81.9647,97.1,1111122 
SCCF RECON,ioos:station:SCCF:16:1,2017-12-07T13:45:00Z,26.4345,-81.9647,95.5,1111122 
SCCF RECON,ioos:station:SCCF:16:1,2017-12-07T14:45:00Z,26.4345,-81.9647,91.6,1111122 
SCCF RECON,ioos:station:SCCF:16:1,2017-12-07T15:45:00Z,26.4345,-81.9647,90.4,1111122 
SCCF RECON,ioos:station:SCCF:16:1,2017-12-07T16:45:00Z,26.4345,-81.9647,88.6,1111122 
SCCF RECON,ioos:station:SCCF:16:1,2017-12-07T17:45:00Z,26.4345,-81.9647,87.0,1111122 
SCCF RECON,ioos:station:SCCF:16:1,2017-12-07T18:45:00Z,26.4345,-81.9647,86.7,1111122 
SCCF RECON,ioos:station:SCCF:16:1,2017-12-07T19:45:00Z,26.4345,-81.9647,88.0,1111122 
SCCF RECON,ioos:station:SCCF:16:1,2017-12-07T20:45:00Z,26.4345,-81.9647,89.0,1111122 
SCCF RECON,ioos:station:SCCF:16:1,2017-12-07T21:45:00Z,26.4345,-81.9647,91.7,1111122 
SCCF RECON,ioos:station:SCCF:16:1,2017-12-07T22:45:00Z,26.4345,-81.9647,96.2,1111122 
SCCF RECON,ioos:station:SCCF:16:1,2017-12-08T05:45:00Z,26.4345,-81.9647,0.4,1111122 
SCCF RECON,ioos:station:SCCF:16:1,2017-12-08T06:45:00Z,26.4345,-81.9647,0.4,1111122 
SCCF RECON,ioos:station:SCCF:16:1,2017-12-08T07:45:00Z,26.4345,-81.9647,0.4,1111122 
SCCF RECON,ioos:station:SCCF:16:1,2017-12-08T08:45:00Z,26.4345,-81.9647,0.4,1111122 
SCCF RECON,ioos:station:SCCF:16:1,2017-12-08T09:45:00Z,26.4345,-81.9647,100.1,1111122 
SCCF RECON,ioos:station:SCCF:16:1,2017-12-08T10:45:00Z,26.4345,-81.9647,99.9,1111122 
SCCF RECON,ioos:station:SCCF:16:1,2017-12-08T11:45:00Z,26.4345,-81.9647,0.4,1111122 
SCCF RECON,ioos:station:SCCF:16:1,2017-12-08T12:45:00Z,26.4345,-81.9647,0.4,1111122 
SCCF RECON,ioos:station:SCCF:16:1,2017-12-08T13:45:00Z,26.4345,-81.9647,99.8,1111122 
SCCF RECON,ioos:station:SCCF:16:1,2017-12-08T14:45:00Z,26.4345,-81.9647,0.4,1111122 
SCCF RECON,ioos:station:SCCF:16:1,2017-12-08T15:45:00Z,26.4345,-81.9647,0.4,1111122 
SCCF RECON,ioos:station:SCCF:16:1,2017-12-08T16:45:00Z,26.4345,-81.9647,0.4,1111122 
SCCF RECON,ioos:station:SCCF:16:1,2017-12-08T17:45:00Z,26.4345,-81.9647,0.4,1111122 
SCCF RECON,ioos:station:SCCF:16:1,2017-12-08T18:45:00Z,26.4345,-81.9647,0.4,1111122 
SCCF RECON,ioos:station:SCCF:16:1,2017-12-08T19:45:00Z,26.4345,-81.9647,0.4,1111122 
SCCF RECON,ioos:station:SCCF:16:1,2017-12-08T20:45:00Z,26.4345,-81.9647,0.4,1111122 
SCCF RECON,ioos:station:SCCF:16:1,2017-12-08T21:45:00Z,26.4345,-81.9647,0.4,1111122 
SCCF RECON,ioos:station:SCCF:16:1,2017-12-08T22:45:00Z,26.4345,-81.9647,0.4,1111122 
SCCF RECON,ioos:station:SCCF:16:1,2017-12-09T05:45:00Z,26.4345,-81.9647,0.4,1111122 
SCCF RECON,ioos:station:SCCF:16:1,2017-12-09T06:45:00Z,26.4345,-81.9647,0.4,1111122 
SCCF RECON,ioos:station:SCCF:16:1,2017-12-09T07:45:00Z,26.4345,-81.9647,0.4,1111122 
SCCF RECON,ioos:station:SCCF:16:1,2017-12-09T08:45:00Z,26.4345,-81.9647,0.4,1111122 
SCCF RECON,ioos:station:SCCF:16:1,2017-12-09T09:45:00Z,26.4345,-81.9647,99.7,1111122 
SCCF RECON,ioos:station:SCCF:16:1,2017-12-09T10:45:00Z,26.4345,-81.9647,93.0,1111122 
SCCF RECON,ioos:station:SCCF:16:1,2017-12-09T11:45:00Z,26.4345,-81.9647,89.5,1111122 
SCCF RECON,ioos:station:SCCF:16:1,2017-12-09T12:45:00Z,26.4345,-81.9647,87.3,1111122 
SCCF RECON,ioos:station:SCCF:16:1,2017-12-09T13:45:00Z,26.4345,-81.9647,0.4,1111122 
SCCF RECON,ioos:station:SCCF:16:1,2017-12-09T14:45:00Z,26.4345,-81.9647,0.4,1111122 
SCCF RECON,ioos:station:SCCF:16:1,2017-12-09T15:45:00Z,26.4345,-81.9647,84.5,1111122 
SCCF RECON,ioos:station:SCCF:16:1,2017-12-09T16:45:00Z,26.4345,-81.9647,84.2,1111122 
SCCF RECON,ioos:station:SCCF:16:1,2017-12-09T17:45:00Z,26.4345,-81.9647,82.0,1111122 
SCCF RECON,ioos:station:SCCF:16:1,2017-12-09T18:45:00Z,26.4345,-81.9647,85.7,1111122 
SCCF RECON,ioos:station:SCCF:16:1,2017-12-09T19:45:00Z,26.4345,-81.9647,74.1,1111122 
SCCF RECON,ioos:station:SCCF:16:1,2017-12-09T20:45:00Z,26.4345,-81.9647,85.7,1111122 
SCCF RECON,ioos:station:SCCF:16:1,2017-12-09T21:45:00Z,26.4345,-81.9647,86.2,1111122 
SCCF RECON,ioos:station:SCCF:16:1,2017-12-09T22:45:00Z,26.4345,-81.9647,84.0,1111122 
SCCF RECON,ioos:station:SCCF:16:1,2017-12-10T05:45:00Z,26.4345,-81.9647,63.0,1111122 
SCCF RECON,ioos:station:SCCF:16:1,2017-12-10T06:45:00Z,26.4345,-81.9647,60.8,1111122 
SCCF RECON,ioos:station:SCCF:16:1,2017-12-10T07:45:00Z,26.4345,-81.9647,59.5,1111122 
SCCF RECON,ioos:station:SCCF:16:1,2017-12-10T08:45:00Z,26.4345,-81.9647,67.2,1111122 
SCCF RECON,ioos:station:SCCF:16:1,2017-12-10T09:45:00Z,26.4345,-81.9647,73.4,1111122 
SCCF RECON,ioos:station:SCCF:16:1,2017-12-10T10:45:00Z,26.4345,-81.9647,70.5,1111122 
SCCF RECON,ioos:station:SCCF:16:1,2017-12-10T11:45:00Z,26.4345,-81.9647,68.2,1111122 
SCCF RECON,ioos:station:SCCF:16:1,2017-12-10T12:45:00Z,26.4345,-81.9647,61.7,1111122 
SCCF RECON,ioos:station:SCCF:16:1,2017-12-10T13:45:00Z,26.4345,-81.9647,55.1,1111122 
SCCF RECON,ioos:station:SCCF:16:1,2017-12-10T14:45:00Z,26.4345,-81.9647,61.3,1111122 
SCCF RECON,ioos:station:SCCF:16:1,2017-12-10T15:45:00Z,26.4345,-81.9647,57.8,1111122 
SCCF RECON,ioos:station:SCCF:16:1,2017-12-10T16:45:00Z,26.4345,-81.9647,56.5,1111122 
SCCF RECON,ioos:station:SCCF:16:1,2017-12-10T17:45:00Z,26.4345,-81.9647,54.3,1111122 
SCCF RECON,ioos:station:SCCF:16:1,2017-12-10T18:45:00Z,26.4345,-81.9647,47.4,1111122 
SCCF RECON,ioos:station:SCCF:16:1,2017-12-10T19:45:00Z,26.4345,-81.9647,47.9,1111122 
SCCF RECON,ioos:station:SCCF:16:1,2017-12-10T20:45:00Z,26.4345,-81.9647,49.7,1111122 
SCCF RECON,ioos:station:SCCF:16:1,2017-12-10T21:45:00Z,26.4345,-81.9647,45.0,1111122 
SCCF RECON,ioos:station:SCCF:16:1,2017-12-10T22:45:00Z,26.4345,-81.9647,42.9,1111122 
SCCF RECON,ioos:station:SCCF:16:1,2017-12-11T05:45:00Z,26.4345,-81.9647,57.0,1111122 
SCCF RECON,ioos:station:SCCF:16:1,2017-12-11T06:45:00Z,26.4345,-81.9647,49.7,1111122 
SCCF RECON,ioos:station:SCCF:16:1,2017-12-11T07:45:00Z,26.4345,-81.9647,60.5,1111122 
SCCF RECON,ioos:station:SCCF:16:1,2017-12-11T08:45:00Z,26.4345,-81.9647,71.7,1111122 
SCCF RECON,ioos:station:SCCF:16:1,2017-12-11T09:45:00Z,26.4345,-81.9647,78.5,1111122 
SCCF RECON,ioos:station:SCCF:16:1,2017-12-11T10:45:00Z,26.4345,-81.9647,72.2,1111122 
SCCF RECON,ioos:station:SCCF:16:1,2017-12-11T11:45:00Z,26.4345,-81.9647,78.5,1111122 
SCCF RECON,ioos:station:SCCF:16:1,2017-12-11T12:45:00Z,26.4345,-81.9647,72.2,1111122 
SCCF RECON,ioos:station:SCCF:16:1,2017-12-11T13:45:00Z,26.4345,-81.9647,69.3,1111122 
SCCF RECON,ioos:station:SCCF:16:1,2017-12-11T14:45:00Z,26.4345,-81.9647,62.4,1111122 
SCCF RECON,ioos:station:SCCF:16:1,2017-12-11T15:45:00Z,26.4345,-81.9647,57.1,1111122 
SCCF RECON,ioos:station:SCCF:16:1,2017-12-11T16:45:00Z,26.4345,-81.9647,54.8,1111122 
SCCF RECON,ioos:station:SCCF:16:1,2017-12-11T17:45:00Z,26.4345,-81.9647,53.3,1111122 
SCCF RECON,ioos:station:SCCF:16:1,2017-12-11T18:45:00Z,26.4345,-81.9647,56.0,1111122 
SCCF RECON,ioos:station:SCCF:16:1,2017-12-11T19:45:00Z,26.4345,-81.9647,52.5,1111122 
SCCF RECON,ioos:station:SCCF:16:1,2017-12-11T20:45:00Z,26.4345,-81.9647,48.1,1111122 
SCCF RECON,ioos:station:SCCF:16:1,2017-12-11T21:45:00Z,26.4345,-81.9647,47.8,1111122 
SCCF RECON,ioos:station:SCCF:16:1,2017-12-11T22:45:00Z,26.4345,-81.9647,54.9,1111122 
SCCF RECON,ioos:station:SCCF:16:1,2017-12-12T05:45:00Z,26.4345,-81.9647,63.2,1111122 
SCCF RECON,ioos:station:SCCF:16:1,2017-12-12T06:45:00Z,26.4345,-81.9647,66.0,1111122 
SCCF RECON,ioos:station:SCCF:16:1,2017-12-12T07:45:00Z,26.4345,-81.9647,56.0,1111122 
SCCF RECON,ioos:station:SCCF:16:1,2017-12-12T08:45:00Z,26.4345,-81.9647,57.5,1111122 
SCCF RECON,ioos:station:SCCF:16:1,2017-12-12T09:45:00Z,26.4345,-81.9647,62.2,1111122 
SCCF RECON,ioos:station:SCCF:16:1,2017-12-12T10:45:00Z,26.4345,-81.9647,59.5,1111122 
SCCF RECON,ioos:station:SCCF:16:1,2017-12-12T11:45:00Z,26.4345,-81.9647,62.3,1111122 
SCCF RECON,ioos:station:SCCF:16:1,2017-12-12T12:45:00Z,26.4345,-81.9647,65.0,1111122 
SCCF RECON,ioos:station:SCCF:16:1,2017-12-12T13:45:00Z,26.4345,-81.9647,69.2,1111122 
SCCF RECON,ioos:station:SCCF:16:1,2017-12-12T14:45:00Z,26.4345,-81.9647,68.3,1111122 
SCCF RECON,ioos:station:SCCF:16:1,2017-12-12T15:45:00Z,26.4345,-81.9647,70.4,1111122 
SCCF RECON,ioos:station:SCCF:16:1,2017-12-12T16:45:00Z,26.4345,-81.9647,63.0,1111122 
SCCF RECON,ioos:station:SCCF:16:1,2017-12-12T17:45:00Z,26.4345,-81.9647,64.7,1111122 
SCCF RECON,ioos:station:SCCF:16:1,2017-12-12T18:45:00Z,26.4345,-81.9647,66.6,1111122 
SCCF RECON,ioos:station:SCCF:16:1,2017-12-12T19:45:00Z,26.4345,-81.9647,57.1,1111122 
SCCF RECON,ioos:station:SCCF:16:1,2017-12-12T20:45:00Z,26.4345,-81.9647,62.8,1111122 
SCCF RECON,ioos:station:SCCF:16:1,2017-12-12T21:45:00Z,26.4345,-81.9647,62.6,1111122 
SCCF RECON,ioos:station:SCCF:16:1,2017-12-12T22:45:00Z,26.4345,-81.9647,64.3,1111122 
SCCF RECON,ioos:station:SCCF:16:1,2017-12-13T09:45:00Z,26.4345,-81.9647,60.9,1111122 
SCCF RECON,ioos:station:SCCF:16:1,2017-12-13T10:45:00Z,26.4345,-81.9647,53.8,1111122 
SCCF RECON,ioos:station:SCCF:16:1,2017-12-13T11:45:00Z,26.4345,-81.9647,58.4,1111122 
SCCF RECON,ioos:station:SCCF:16:1,2017-12-13T12:45:00Z,26.4345,-81.9647,55.0,1111122 
SCCF RECON,ioos:station:SCCF:16:1,2017-12-13T13:45:00Z,26.4345,-81.9647,54.4,1111122 
SCCF RECON,ioos:station:SCCF:16:1,2017-12-13T14:45:00Z,26.4345,-81.9647,54.9,1111122 
SCCF RECON,ioos:station:SCCF:16:1,2017-12-13T17:45:00Z,26.4345,-81.9647,57.0,1111122 
SCCF RECON,ioos:station:SCCF:16:1,2017-12-13T18:45:00Z,26.4345,-81.9647,55.6,1111122 
SCCF RECON,ioos:station:SCCF:16:1,2017-12-13T19:45:00Z,26.4345,-81.9647,53.9,1111122 
SCCF RECON,ioos:station:SCCF:16:1,2017-12-13T20:45:00Z,26.4345,-81.9647,54.5,1111122 
SCCF RECON,ioos:station:SCCF:16:1,2017-12-13T21:45:00Z,26.4345,-81.9647,60.5,1111122 
SCCF RECON,ioos:station:SCCF:16:1,2017-12-13T22:45:00Z,26.4345,-81.9647,66.1,1111122 
SCCF RECON,ioos:station:SCCF:16:1,2017-12-14T11:45:00Z,26.4345,-81.9647,92.1,1111122 
SCCF RECON,ioos:station:SCCF:16:1,2017-12-14T12:45:00Z,26.4345,-81.9647,88.9,1111122 
SCCF RECON,ioos:station:SCCF:16:1,2017-12-14T13:45:00Z,26.4345,-81.9647,82.6,1111122 
SCCF RECON,ioos:station:SCCF:16:1,2017-12-14T14:45:00Z,26.4345,-81.9647,78.8,1111122 
SCCF RECON,ioos:station:SCCF:16:1,2017-12-14T15:45:00Z,26.4345,-81.9647,75.8,1111122 
SCCF RECON,ioos:station:SCCF:16:1,2017-12-14T16:45:00Z,26.4345,-81.9647,72.4,1111122 
SCCF RECON,ioos:station:SCCF:16:1,2017-12-14T17:45:00Z,26.4345,-81.9647,71.5,1111122 
SCCF RECON,ioos:station:SCCF:16:1,2017-12-14T18:45:00Z,26.4345,-81.9647,72.6,1111122 
SCCF RECON,ioos:station:SCCF:16:1,2017-12-14T19:45:00Z,26.4345,-81.9647,75.7,1111122 
SCCF RECON,ioos:station:SCCF:16:1,2017-12-14T20:45:00Z,26.4345,-81.9647,77.0,1111122 
SCCF RECON,ioos:station:SCCF:16:1,2017-12-14T21:45:00Z,26.4345,-81.9647,77.6,1111122 
SCCF RECON,ioos:station:SCCF:16:1,2017-12-14T22:45:00Z,26.4345,-81.9647,83.3,1111122 
SCCF RECON,ioos:station:SCCF:16:1,2017-12-15T05:45:00Z,26.4345,-81.9647,90.5,1111122 
SCCF RECON,ioos:station:SCCF:16:1,2017-12-15T06:45:00Z,26.4345,-81.9647,90.9,1111122 
SCCF RECON,ioos:station:SCCF:16:1,2017-12-15T07:45:00Z,26.4345,-81.9647,99.2,1111122 
SCCF RECON,ioos:station:SCCF:16:1,2017-12-15T08:45:00Z,26.4345,-81.9647,100.1,1111122 
SCCF RECON,ioos:station:SCCF:16:1,2017-12-15T09:45:00Z,26.4345,-81.9647,99.3,1111122 
SCCF RECON,ioos:station:SCCF:16:1,2017-12-15T10:45:00Z,26.4345,-81.9647,89.2,1111122 
SCCF RECON,ioos:station:SCCF:16:1,2017-12-15T11:45:00Z,26.4345,-81.9647,97.8,1111122 
SCCF RECON,ioos:station:SCCF:16:1,2017-12-15T12:45:00Z,26.4345,-81.9647,100.1,1111122 
SCCF RECON,ioos:station:SCCF:16:1,2017-12-15T13:45:00Z,26.4345,-81.9647,100.1,1111122 
SCCF RECON,ioos:station:SCCF:16:1,2017-12-15T14:45:00Z,26.4345,-81.9647,100.1,1111122 
SCCF RECON,ioos:station:SCCF:16:1,2017-12-15T15:45:00Z,26.4345,-81.9647,100.1,1111122 
SCCF RECON,ioos:station:SCCF:16:1,2017-12-15T16:45:00Z,26.4345,-81.9647,100.1,1111122 
SCCF RECON,ioos:station:SCCF:16:1,2017-12-15T17:45:00Z,26.4345,-81.9647,100.1,1111122 
SCCF RECON,ioos:station:SCCF:16:1,2017-12-15T18:45:00Z,26.4345,-81.9647,100.1,1111122 
SCCF RECON,ioos:station:SCCF:16:1,2017-12-15T19:45:00Z,26.4345,-81.9647,15.5,1111122 
SCCF RECON,ioos:station:SCCF:16:1,2017-12-15T20:45:00Z,26.4345,-81.9647,100.1,1111122 
SCCF RECON,ioos:station:SCCF:16:1,2017-12-15T21:45:00Z,26.4345,-81.9647,100.1,1111122 
SCCF RECON,ioos:station:SCCF:16:1,2017-12-15T22:45:00Z,26.4345,-81.9647,100.1,1111122 
SCCF RECON,ioos:station:SCCF:16:1,2017-12-16T05:45:00Z,26.4345,-81.9647,0.4,1111122 
SCCF RECON,ioos:station:SCCF:16:1,2017-12-16T06:45:00Z,26.4345,-81.9647,0.4,1111122 
SCCF RECON,ioos:station:SCCF:16:1,2017-12-16T07:45:00Z,26.4345,-81.9647,0.4,1111122 
SCCF RECON,ioos:station:SCCF:16:1,2017-12-16T08:45:00Z,26.4345,-81.9647,0.4,1111122 
SCCF RECON,ioos:station:SCCF:16:1,2017-12-16T09:45:00Z,26.4345,-81.9647,0.4,1111122 
SCCF RECON,ioos:station:SCCF:16:1,2017-12-16T10:45:00Z,26.4345,-81.9647,0.4,1111122 
SCCF RECON,ioos:station:SCCF:16:1,2017-12-16T11:45:00Z,26.4345,-81.9647,0.4,1111122 
SCCF RECON,ioos:station:SCCF:16:1,2017-12-16T12:45:00Z,26.4345,-81.9647,0.4,1111122 
SCCF RECON,ioos:station:SCCF:16:1,2017-12-16T13:45:00Z,26.4345,-81.9647,0.4,1111122 
SCCF RECON,ioos:station:SCCF:16:1,2017-12-16T14:45:00Z,26.4345,-81.9647,0.4,1111122 
SCCF RECON,ioos:station:SCCF:16:1,2017-12-16T15:45:00Z,26.4345,-81.9647,0.4,1111122 
SCCF RECON,ioos:station:SCCF:16:1,2017-12-16T16:45:00Z,26.4345,-81.9647,0.4,1111122 
SCCF RECON,ioos:station:SCCF:16:1,2017-12-16T17:45:00Z,26.4345,-81.9647,87.7,1111122 
SCCF RECON,ioos:station:SCCF:16:1,2017-12-16T18:45:00Z,26.4345,-81.9647,88.0,1111122 
SCCF RECON,ioos:station:SCCF:16:1,2017-12-16T19:45:00Z,26.4345,-81.9647,84.6,1111122 
SCCF RECON,ioos:station:SCCF:16:1,2017-12-16T20:45:00Z,26.4345,-81.9647,79.0,1111122 
SCCF RECON,ioos:station:SCCF:16:1,2017-12-16T21:45:00Z,26.4345,-81.9647,78.8,1111122 
SCCF RECON,ioos:station:SCCF:16:1,2017-12-16T22:45:00Z,26.4345,-81.9647,80.3,1111122 
SCCF RECON,ioos:station:SCCF:16:1,2017-12-17T05:45:00Z,26.4345,-81.9647,0.4,1111122 
SCCF RECON,ioos:station:SCCF:16:1,2017-12-17T06:45:00Z,26.4345,-81.9647,0.4,1111122 